[[{"header":{"parameterUnit":"m.s-1","parameterCategory":2,"la1":30.2992,"la2":30.254,"lo1":-89.0895,"lo2":-89.0443,"dy":0.0025,"dx":0.0025,"nx":19,"ny":19,"refTime":"2026-05-12T03:00:00:Z","depth":"0","parameterNumber":2,"parameterNumberName":"U-component_of_CURRENTS"},"data":[0,0,0,0.1271,0.1275,0.1459,0.1459,0.1606,0.1607,0,0,0,0,0,0,0,0,0,0,0,0.1188,0.1189,0.1271,0.1276,0.1458,0.1459,0.1606,0.1607,0,0,0,0,0,0,0,0,0,0,0,0.1187,0.1188,0.119,0.1276,0.1458,0.1459,0.1605,0.1488,0,0,0,0,0,0,0,0,0,0,0.132,0.1231,0.1188,0.119,0.1278,0.1458,0.1459,0.1483,0.1495,0.15,0,0.1523,0,0.1579,0.1615,0.1616,0,0,0,0.127,0.1221,0.1302,0.119,0.1279,0.1458,0.1374,0.149,0.1504,0.1515,0.1526,0.1533,0.1581,0.1616,0.1617,0.165,0.1649,0,0,0.126,0.1193,0.1293,0.131,0.132,0.1369,0.138,0.1499,0.1489,0.1527,0.1537,0.1584,0.1617,0.1618,0.165,0.165,0,0,0,0.1235,0.1185,0.1264,0.1302,0.1349,0.1374,0.1387,0.1484,0.1519,0.1539,0.1586,0.1618,0.1619,0.1651,0.165,0.1581,0,0,0,0.1228,0.1173,0.1259,0.1217,0.1347,0.1425,0.1368,0.151,0.1526,0.1585,0.1618,0.162,0.1652,0.165,0.1584,0.1544,0,0,0,0.1181,0.1167,0.1193,0.1214,0.1302,0.1426,0.1467,0.1515,0.1554,0.1616,0.1621,0.1652,0.1651,0.1587,0.1549,0.1537,0,0,0,0.11,0.1118,0.1191,0.1221,0.1301,0.1391,0.1467,0.1527,0.1571,0.1618,0.1651,0.165,0.1588,0.1553,0.154,0.1507,0.1491,0,0,0.1081,0.1113,0.1136,0.1207,0.1272,0.1366,0.1404,0.1495,0.155,0.1607,0.1609,0.1583,0.155,0.1538,0.1429,0.1415,0,0,0,0.1104,0.1116,0.1147,0.1205,0.1292,0.1343,0.1441,0.1475,0.1529,0.1575,0.1575,0.1556,0.1551,0.1536,0.1525,0.1476,0.1644,0.1644,0.1644,0.0952,0.1044,0.1073,0.118,0.1226,0.1325,0.1358,0.1417,0.1483,0.1481,0.1493,0.1426,0.1408,0.14,0.1349,0.1492,0.1492,0.1492,0.1492,0.0913,0.095,0.1024,0.1092,0.116,0.1196,0.1287,0.133,0.1369,0.1419,0.1419,0.1456,0.1384,0.1334,0.1487,0.1488,0.1489,0.1489,0.1489,0.0829,0.0869,0.0915,0.1002,0.104,0.113,0.1161,0.123,0.1293,0.1291,0.1315,0.1316,0.128,0.1306,0.1306,0.1306,0.1306,0.1305,0.1305,0.0741,0.08,0.0838,0.0923,0.096,0.1009,0.1096,0.1128,0.1182,0.1226,0.1227,0.1236,0.137,0.1387,0.1301,0.1302,0.1302,0.1303,0.1303,0.0703,0.0725,0.0784,0.0823,0.091,0.0933,0.1003,0.1046,0.1084,0.1094,0.1097,0.1206,0.123,0.124,0.1253,0.1138,0.1138,0.1138,0.1138,0.0654,0.0678,0.075,0.0805,0.0854,0.0906,0.09,0.0932,0.0975,0.0978,0.1,0.1019,0.1028,0.1043,0.1057,0.1068,0.0908,0.0908,0.0908,0.0626,0.0663,0.0693,0.0773,0.0837,0.0865,0.0837,0.0816,0.087,0.0895,0.0932,0.0942,0.0969,0.0988,0.1017,0.104,0.1063,0,0]},{"header":{"parameterUnit":"m.s-1","parameterCategory":2,"la1":30.2992,"la2":30.254,"lo1":-89.0895,"lo2":-89.0443,"dy":0.0025,"dx":0.0025,"nx":19,"ny":19,"refTime":"2026-05-12T03:00:00:Z","depth":"0","parameterNumber":3,"parameterNumberName":"V-component_of_CURRENTS"},"data":[0,0,0,0.054,0.0537,0.0409,0.0409,0.0338,0.0337,0,0,0,0,0,0,0,0,0,0,0,0.0585,0.0584,0.054,0.0537,0.0409,0.0409,0.0338,0.0337,0,0,0,0,0,0,0,0,0,0,0,0.0585,0.0584,0.0583,0.0537,0.0409,0.0409,0.0338,0.0412,0,0,0,0,0,0,0,0,0,0,0.0525,0.0565,0.0584,0.0583,0.0536,0.0409,0.0409,0.0415,0.0407,0.0422,0,0.0394,0,0.0364,0.0335,0.0334,0,0,0,0.0539,0.0571,0.0522,0.0582,0.0535,0.041,0.0468,0.041,0.0402,0.0413,0.0392,0.0389,0.0363,0.0334,0.0334,0.03,0.03,0,0,0.0546,0.0577,0.0528,0.0517,0.0493,0.0472,0.0464,0.0404,0.0403,0.0392,0.0387,0.0362,0.0334,0.0334,0.03,0.03,0,0,0,0.0565,0.0583,0.0534,0.0521,0.049,0.0468,0.0459,0.0405,0.0385,0.0386,0.0361,0.0334,0.0333,0.03,0.03,0.032,0,0,0,0.057,0.0593,0.0537,0.0557,0.049,0.0437,0.0462,0.0389,0.0381,0.0362,0.0334,0.0333,0.03,0.03,0.032,0.0309,0,0,0,0.0592,0.0596,0.0575,0.0558,0.05,0.0436,0.0412,0.0386,0.0367,0.0334,0.0333,0.0301,0.03,0.0319,0.0309,0.0296,0,0,0,0.0637,0.0597,0.0575,0.0526,0.0501,0.0426,0.0412,0.0364,0.0336,0.0333,0.03,0.03,0.0319,0.0309,0.0296,0.0293,0.0293,0,0,0.061,0.0595,0.0564,0.0541,0.047,0.0444,0.0399,0.036,0.0342,0.0327,0.0325,0.032,0.0309,0.0296,0.0286,0.0285,0,0,0,0.057,0.0545,0.052,0.0474,0.0425,0.0395,0.0358,0.0352,0.0328,0.0322,0.0312,0.0304,0.0295,0.0294,0.0293,0.0342,0.03,0.03,0.03,0.0579,0.0538,0.0485,0.0432,0.0401,0.0365,0.0348,0.0335,0.0328,0.0325,0.0315,0.0308,0.0308,0.0307,0.0358,0.0318,0.0319,0.0319,0.0319,0.0522,0.0483,0.0457,0.0389,0.0374,0.0347,0.0336,0.0336,0.0323,0.0323,0.0314,0.0308,0.0308,0.0362,0.032,0.032,0.0319,0.0319,0.0319,0.0501,0.0481,0.0439,0.0372,0.0347,0.0329,0.0313,0.0317,0.032,0.0318,0.0299,0.0299,0.0349,0.0311,0.0311,0.0311,0.0311,0.0311,0.0311,0.0503,0.0462,0.0412,0.0351,0.0329,0.0302,0.0292,0.0287,0.0289,0.03,0.03,0.0351,0.0305,0.0308,0.0309,0.031,0.031,0.031,0.031,0.0467,0.0456,0.0385,0.035,0.0295,0.0266,0.0262,0.0255,0.0253,0.0255,0.0344,0.0291,0.0277,0.0277,0.0279,0.0272,0.0272,0.0272,0.0272,0.0463,0.0445,0.037,0.0323,0.0279,0.0253,0.0229,0.0241,0.03,0.0343,0.0358,0.038,0.038,0.0373,0.0371,0.0375,0.0393,0.0393,0.0393,0.0448,0.0426,0.0375,0.0317,0.0275,0.0236,0.0215,0.024,0.0341,0.0404,0.0428,0.0423,0.0463,0.0457,0.0451,0.0445,0.0453,0,0]}],[{"header":{"parameterUnit":"m.s-1","parameterCategory":2,"la1":30.2992,"la2":30.254,"lo1":-89.0895,"lo2":-89.0443,"dy":0.0025,"dx":0.0025,"nx":19,"ny":19,"refTime":"2026-05-12T03:00:00:Z","depth":"2","parameterNumber":2,"parameterNumberName":"U-component_of_CURRENTS"},"data":[0,0,0,0.0571,0.0571,0.0572,0.0572,0.0539,0.0539,0,0,0,0,0,0,0,0,0,0,0,0.0569,0.0569,0.0571,0.0571,0.0572,0.0572,0.0539,0.0539,0,0,0,0,0,0,0,0,0,0,0,0.0569,0.0569,0.0569,0.0571,0.0572,0.0572,0.0539,0.0548,0,0,0,0,0,0,0,0,0,0,0.0551,0.0549,0.0569,0.0569,0.0571,0.0572,0.0572,0.0549,0.0547,0.0528,0,0.0526,0,0.053,0.0536,0.0535,0,0,0,0.0574,0.055,0.0554,0.0569,0.0571,0.0572,0.0573,0.0548,0.0546,0.0526,0.0525,0.0524,0.0529,0.0535,0.0535,0.0476,0.0475,0,0,0.0574,0.0565,0.0556,0.0553,0.0567,0.0572,0.0572,0.0548,0.0541,0.0525,0.0524,0.0529,0.0535,0.0535,0.0476,0.0475,0,0,0,0.0572,0.0565,0.0571,0.0554,0.0556,0.0572,0.0572,0.0542,0.0545,0.0524,0.0528,0.0535,0.0534,0.0476,0.0476,0.047,0,0,0,0.0572,0.0564,0.0571,0.0565,0.0557,0.0553,0.0567,0.0547,0.0544,0.0528,0.0535,0.0534,0.0476,0.0476,0.0471,0.0457,0,0,0,0.057,0.0564,0.0564,0.0565,0.0565,0.0553,0.0555,0.0546,0.0546,0.0535,0.0533,0.0477,0.0476,0.0472,0.0458,0.0431,0,0,0,0.0562,0.0533,0.0563,0.0538,0.0565,0.0544,0.0555,0.0544,0.0534,0.0534,0.0476,0.0476,0.0472,0.0459,0.0432,0.0367,0.0356,0,0,0.0516,0.0527,0.0514,0.0541,0.0516,0.0545,0.0513,0.0513,0.0516,0.0483,0.0482,0.0471,0.0459,0.0431,0.0327,0.0318,0,0,0,0.0493,0.0482,0.0479,0.0479,0.0483,0.0484,0.049,0.0488,0.0479,0.0506,0.0458,0.045,0.0434,0.0396,0.0388,0.0473,0.0473,0.0473,0.0473,0.0395,0.0424,0.0401,0.0428,0.0426,0.0439,0.0435,0.0434,0.0447,0.0444,0.0437,0.0399,0.0359,0.0353,0.0433,0.0433,0.0433,0.0433,0.0433,0.0323,0.0311,0.0358,0.035,0.0376,0.0366,0.0379,0.0396,0.0383,0.0408,0.0392,0.0381,0.0344,0.0432,0.0433,0.0433,0.0433,0.0433,0.0433,0.0254,0.0254,0.0272,0.0283,0.0293,0.0325,0.0308,0.0341,0.0364,0.036,0.0315,0.0315,0.0392,0.0359,0.0359,0.0359,0.0358,0.0358,0.0358,0.0172,0.0193,0.0185,0.021,0.0216,0.0228,0.0265,0.0259,0.0268,0.0288,0.0287,0.0374,0.0376,0.0386,0.0355,0.0356,0.0356,0.0356,0.0357,0.0078,0.0101,0.0085,0.0087,0.0099,0.0076,0.0126,0.012,0.0133,0.0118,0.0237,0.0241,0.0231,0.0236,0.0242,0.0176,0.0176,0.0176,0.0176,0.0009,0.0023,0.0,-0.0011,-0.0028,-0.0001,-0.0059,-0.003,0.0043,0.0085,0.0089,0.0099,0.0108,0.0092,0.0101,0.0105,0.0003,0.0003,0.0003,-0.0052,-0.0041,-0.0077,-0.0064,-0.008,-0.0096,-0.0146,-0.0101,-0.0011,-0.0001,0.0089,0.0158,0.0185,0.0194,0.0182,0.0192,0.0203,0,0]},{"header":{"parameterUnit":"m.s-1","parameterCategory":2,"la1":30.2992,"la2":30.254,"lo1":-89.0895,"lo2":-89.0443,"dy":0.0025,"dx":0.0025,"nx":19,"ny":19,"refTime":"2026-05-12T03:00:00:Z","depth":"2","parameterNumber":3,"parameterNumberName":"V-component_of_CURRENTS"},"data":[0,0,0,-0.0844,-0.0846,-0.094,-0.094,-0.0977,-0.0977,0,0,0,0,0,0,0,0,0,0,0,-0.0803,-0.0804,-0.0844,-0.0846,-0.094,-0.094,-0.0977,-0.0977,0,0,0,0,0,0,0,0,0,0,0,-0.0803,-0.0804,-0.0805,-0.0847,-0.094,-0.094,-0.0977,-0.0924,0,0,0,0,0,0,0,0,0,0,-0.0842,-0.0793,-0.0804,-0.0805,-0.0847,-0.094,-0.094,-0.0922,-0.0927,-0.0915,0,-0.0937,0,-0.0966,-0.0979,-0.0979,0,0,0,-0.0834,-0.0789,-0.0846,-0.0805,-0.0849,-0.094,-0.0894,-0.0925,-0.0931,-0.0921,-0.0938,-0.0941,-0.0967,-0.0979,-0.0979,-0.098,-0.0979,0,0,-0.0829,-0.0786,-0.0843,-0.085,-0.0882,-0.0891,-0.0897,-0.093,-0.0918,-0.0939,-0.0942,-0.0967,-0.0979,-0.0979,-0.098,-0.098,0,0,0,-0.0822,-0.0782,-0.084,-0.0848,-0.0876,-0.0894,-0.0901,-0.0916,-0.0945,-0.0943,-0.0968,-0.0979,-0.098,-0.098,-0.098,-0.095,0,0,0,-0.0818,-0.0781,-0.0837,-0.0808,-0.0876,-0.0902,-0.0886,-0.0942,-0.0948,-0.0968,-0.0979,-0.098,-0.098,-0.098,-0.0951,-0.0928,0,0,0,-0.0797,-0.0777,-0.0799,-0.0807,-0.0858,-0.0904,-0.0932,-0.0944,-0.0963,-0.0979,-0.098,-0.098,-0.098,-0.0952,-0.093,-0.089,0,0,0,-0.0736,-0.0775,-0.0797,-0.084,-0.0858,-0.0925,-0.0933,-0.096,-0.0973,-0.098,-0.098,-0.098,-0.0952,-0.0931,-0.0892,-0.0787,-0.0771,0,0,-0.076,-0.0776,-0.0806,-0.083,-0.0892,-0.091,-0.0934,-0.095,-0.0959,-0.0962,-0.0963,-0.095,-0.093,-0.089,-0.0762,-0.0745,0,0,0,-0.0797,-0.0815,-0.0838,-0.0875,-0.0925,-0.093,-0.0956,-0.0951,-0.0946,-0.097,-0.095,-0.0938,-0.0913,-0.0855,-0.0842,-0.0978,-0.0978,-0.0978,-0.0978,-0.0713,-0.0781,-0.0819,-0.0892,-0.0916,-0.0938,-0.0931,-0.0924,-0.0942,-0.0924,-0.0913,-0.0861,-0.0799,-0.0788,-0.0919,-0.0919,-0.0918,-0.0918,-0.0918,-0.0728,-0.0752,-0.0802,-0.0865,-0.0877,-0.0882,-0.089,-0.0887,-0.0857,-0.0882,-0.086,-0.0826,-0.0772,-0.0916,-0.0916,-0.0917,-0.0917,-0.0917,-0.0917,-0.0662,-0.0691,-0.0735,-0.0801,-0.0799,-0.0824,-0.0808,-0.0815,-0.0814,-0.0797,-0.0722,-0.0721,-0.0831,-0.0781,-0.0781,-0.078,-0.078,-0.078,-0.078,-0.0572,-0.0634,-0.0668,-0.0728,-0.0735,-0.0736,-0.0746,-0.0734,-0.0685,-0.0668,-0.0667,-0.0814,-0.0819,-0.0822,-0.0776,-0.0776,-0.0777,-0.0777,-0.0778,-0.0547,-0.0552,-0.0614,-0.0635,-0.0672,-0.0659,-0.0667,-0.0595,-0.0568,-0.0516,-0.059,-0.0596,-0.059,-0.06,-0.0598,-0.0495,-0.0495,-0.0495,-0.0495,-0.0489,-0.0512,-0.0579,-0.0619,-0.0634,-0.0632,-0.0531,-0.0393,-0.0346,-0.0278,-0.0287,-0.0295,-0.0311,-0.0292,-0.0308,-0.0302,-0.0122,-0.0121,-0.0121,-0.0475,-0.0499,-0.0538,-0.0602,-0.0627,-0.0604,-0.0455,-0.0192,-0.0032,-0.0107,-0.0235,-0.0468,-0.0508,-0.0522,-0.0518,-0.0534,-0.0534,0,0]}],[{"header":{"parameterUnit":"m.s-1","parameterCategory":2,"la1":30.2992,"la2":30.254,"lo1":-89.0895,"lo2":-89.0443,"dy":0.0025,"dx":0.0025,"nx":19,"ny":19,"refTime":"2026-05-12T03:00:00:Z","depth":"4","parameterNumber":2,"parameterNumberName":"U-component_of_CURRENTS"},"data":[0,0,0,-0.058,-0.0585,-0.0805,-0.0806,-0.0947,-0.0948,0,0,0,0,0,0,0,0,0,0,0,-0.0478,-0.0479,-0.058,-0.0585,-0.0805,-0.0806,-0.0947,-0.0948,0,0,0,0,0,0,0,0,0,0,0,-0.0478,-0.0479,-0.048,-0.0586,-0.0805,-0.0806,-0.0946,-0.0816,0,0,0,0,0,0,0,0,0,0,-0.062,-0.0584,-0.0479,-0.048,-0.0587,-0.0804,-0.0806,-0.0811,-0.0824,-0.0806,0,-0.0827,0,-0.0898,-0.0954,-0.0954,0,0,0,-0.0588,-0.0574,-0.0598,-0.048,-0.0589,-0.0804,-0.0707,-0.082,-0.0834,-0.0822,-0.083,-0.0837,-0.0901,-0.0954,-0.0955,-0.1026,-0.1026,0,0,-0.0576,-0.0555,-0.0588,-0.0606,-0.0627,-0.0699,-0.0713,-0.083,-0.0853,-0.0831,-0.0842,-0.0903,-0.0955,-0.0956,-0.1026,-0.1026,0,0,0,-0.0539,-0.0547,-0.0572,-0.0598,-0.0654,-0.0706,-0.0722,-0.0849,-0.0847,-0.0844,-0.0905,-0.0955,-0.0956,-0.1026,-0.1026,-0.0955,0,0,0,-0.0532,-0.0525,-0.0566,-0.0562,-0.0652,-0.0785,-0.0738,-0.0838,-0.0855,-0.0904,-0.0955,-0.0957,-0.1026,-0.1026,-0.0957,-0.0923,0,0,0,-0.0472,-0.0522,-0.0532,-0.0559,-0.0653,-0.0785,-0.0794,-0.0844,-0.0891,-0.0954,-0.0958,-0.1026,-0.1026,-0.0959,-0.0926,-0.0863,0,0,0,-0.0463,-0.0481,-0.0531,-0.0577,-0.0651,-0.075,-0.0794,-0.0898,-0.0953,-0.0956,-0.1026,-0.1026,-0.0959,-0.0928,-0.0865,-0.0775,0,0,0,-0.0472,-0.0483,-0.0504,-0.0554,-0.0616,-0.0721,-0.0825,-0.0921,-0.0945,-0.0978,-0.0981,-0.0957,-0.0926,-0.0863,-0.0794,0,0,0,0,-0.0498,-0.0506,-0.0526,-0.0595,-0.0673,-0.0783,-0.0907,-0.0915,-0.0953,-0.0981,-0.0982,-0.0966,-0.0927,-0.0885,-0.1027,-0.1027,-0.1027,-0.1027,-0.1027,-0.0481,-0.0522,-0.0568,-0.0637,-0.0719,-0.0846,-0.0886,-0.0933,-0.0954,-0.0948,-0.0927,-0.0858,-0.0814,-0.0952,-0.0951,-0.0951,-0.0951,-0.0951,-0.095,-0.0474,-0.0512,-0.0601,-0.0675,-0.079,-0.0901,-0.0917,-0.0914,-0.0856,-0.0891,-0.0856,-0.0839,-0.0944,-0.0945,-0.0946,-0.0947,-0.0948,-0.0948,-0.0948,-0.0449,-0.0482,-0.0548,-0.0676,-0.0813,-0.0923,-0.0888,-0.0851,-0.0799,-0.0751,-0.0685,-0.0803,-0.0785,-0.0716,-0.0715,-0.0715,-0.0715,-0.0714,-0.0714,-0.0415,-0.0466,-0.0516,-0.0671,-0.0776,-0.0848,-0.0835,-0.0769,-0.0707,-0.0595,-0.0712,-0.0778,-0.0786,-0.0773,-0.0707,-0.0709,-0.0709,-0.071,-0.0711,-0.0392,-0.04,-0.0434,-0.0525,-0.0696,-0.0715,-0.0774,-0.0625,-0.0524,-0.0424,-0.0512,-0.0524,-0.0533,-0.0547,-0.0526,-0.0384,-0.0383,-0.0381,0,-0.0365,-0.0372,-0.0377,-0.0424,-0.0482,-0.0605,-0.0484,-0.0449,-0.0359,-0.031,-0.0467,-0.0566,-0.0574,-0.0591,-0.0601,-0.0578,0,0,0,-0.0348,-0.0337,-0.0328,-0.0341,-0.039,-0.0353,-0.042,-0.0328,-0.044,-0.0333,-0.0345,-0.0354,-0.0659,-0.0688,-0.0731,-0.074,-0.0721,0,0]},{"header":{"parameterUnit":"m.s-1","parameterCategory":2,"la1":30.2992,"la2":30.254,"lo1":-89.0895,"lo2":-89.0443,"dy":0.0025,"dx":0.0025,"nx":19,"ny":19,"refTime":"2026-05-12T03:00:00:Z","depth":"4","parameterNumber":3,"parameterNumberName":"V-component_of_CURRENTS"},"data":[0,0,0,0.0196,0.0198,0.0256,0.0256,0.026,0.026,0,0,0,0,0,0,0,0,0,0,0,0.0166,0.0167,0.0196,0.0198,0.0256,0.0256,0.026,0.026,0,0,0,0,0,0,0,0,0,0,0,0.0166,0.0167,0.0167,0.0198,0.0256,0.0256,0.026,0.0232,0,0,0,0,0,0,0,0,0,0,0.0183,0.0172,0.0166,0.0167,0.0198,0.0256,0.0256,0.0231,0.0234,0.0216,0,0.0227,0,0.025,0.026,0.026,0,0,0,0.019,0.017,0.0186,0.0167,0.0199,0.0256,0.0227,0.0233,0.0236,0.0219,0.0227,0.0228,0.025,0.026,0.026,0.0241,0.0241,0,0,0.0187,0.0175,0.0184,0.0187,0.0215,0.0226,0.0229,0.0235,0.0237,0.0227,0.0229,0.025,0.026,0.0259,0.0241,0.0241,0,0,0,0.0183,0.0173,0.019,0.0186,0.0206,0.0228,0.0232,0.0236,0.0242,0.0229,0.025,0.026,0.0259,0.0241,0.0241,0.0212,0,0,0,0.018,0.0172,0.0188,0.0182,0.0207,0.0233,0.0232,0.0241,0.0244,0.025,0.026,0.0259,0.0241,0.0241,0.0213,0.0218,0,0,0,0.0164,0.017,0.0177,0.0181,0.0212,0.0234,0.024,0.0243,0.0256,0.026,0.0259,0.0241,0.0241,0.0214,0.0219,0.0231,0,0,0,0.0149,0.016,0.0177,0.0187,0.0211,0.0222,0.0241,0.0252,0.0253,0.0259,0.0241,0.0241,0.0214,0.022,0.0231,0.0148,0,0,0,0.0155,0.0161,0.0164,0.018,0.0173,0.0213,0.0209,0.0225,0.0241,0.0233,0.0233,0.0213,0.0219,0.0231,0.0129,0,0,0,0,0.0159,0.0158,0.0157,0.016,0.0172,0.0175,0.0203,0.0214,0.022,0.0244,0.0214,0.0219,0.0228,0.018,0.0239,0.0239,0.0239,0.0239,0.0239,0.0133,0.0137,0.0124,0.0126,0.0132,0.0151,0.0157,0.0177,0.0193,0.0195,0.0196,0.0187,0.0133,0.0188,0.0187,0.0187,0.0187,0.0187,0.0187,0.0111,0.0098,0.0095,0.0096,0.0094,0.0106,0.012,0.0139,0.016,0.0172,0.0181,0.0152,0.0184,0.0185,0.0185,0.0185,0.0186,0.0186,0.0186,0.0084,0.0077,0.0085,0.0068,0.0072,0.0093,0.0088,0.0124,0.0149,0.0151,0.0127,0.0182,0.0186,0.0166,0.0166,0.0166,0.0166,0.0166,0.0166,0.0056,0.0054,0.0038,0.0042,0.0035,0.0048,0.0088,0.0073,0.0104,0.0102,0.0162,0.0181,0.0182,0.0186,0.0167,0.0167,0.0167,0.0167,0.0167,0.0025,0.0028,-0.0002,-0.0015,-0.0049,-0.0038,0.0012,0.0009,0.0007,-0.0016,0.0074,0.0078,0.009,0.0094,0.0095,0.0049,0.0048,0.0047,0,-0.0003,-0.0003,-0.0048,-0.0097,-0.0146,-0.0108,-0.0131,-0.0126,-0.007,-0.0034,-0.0023,0.0079,0.0082,0.0095,0.0097,0.0097,0,0,0,-0.0037,-0.0039,-0.0079,-0.0125,-0.0185,-0.0189,-0.0137,-0.0127,-0.0044,-0.0121,0.0019,0.0026,-0.0013,0.017,0.02,0.0201,0.021,0,0]}]]